Pratt, KS

3:12 AM CDT on October 19, 2017 (GMT -0500)
Pratt Industrial

Weather History for KPTT - May, 2013

Change the Weather History Date:

Tuesday, May 28, 2013

  Actual Average (KP28) Record (KP28)
Temperature  
Mean Temperature 78 °F -  
Max Temperature 89 °F 81 °F 98 °F (2006)
Min Temperature 68 °F 56 °F 42 °F (1906)
Cooling Degree Days 14    
Growing Degree Days 28 (Base 50)    
Moisture  
Dew Point 63 °F    
Average Humidity 66    
Maximum Humidity 88    
Minimum Humidity 38    
Precipitation  
Precipitation 0.00 in - - ()
Sea Level Pressure  
Sea Level Pressure 29.66 in    
Wind  
Wind Speed 13 mph (South)    
Max Wind Speed 25 mph    
Max Gust Speed 39 mph    
Visibility 10 miles    
Events Rain , Thunderstorm    
Averages and records for this station are not official NWS values.
T = Trace of Precipitation, MM = Missing Value Source: NWS Daily Summary

Daily Weather History Graph

Daily Weather History Graph

Search for Another Location

Airport or City:

Trip Planner

Search our weather history database for the weather conditions in past years. The results will help you decide how hot, cold, wet, or windy it might be!

Date:

Astronomy

May. 28, 2013 Rise Set
Actual Time 6:16 AM CDT 8:48 PM CDT
Civil Twilight 5:46 AM CDT 9:18 PM CDT
Nautical Twilight 5:08 AM CDT 9:56 PM CDT
Astronomical Twilight 4:26 AM CDT 10:38 PM CDT
Moon No Moon Rise 10:04 AM CDT (5/28)
Length of Visible Light 15h 32m
Length of Day
14h 31m
Waning Gibbous, 82% of the Moon is Illuminated
May 28
Waning Gibbous
May 31
Last Quarter
Jun 8
New
Jun 16
First Quarter
Jun 23
Full

Hourly Weather History & Observations

Time (CDT) Temp. Heat Index Dew Point Humidity Pressure Visibility Wind Dir Wind Speed Gust Speed Precip Events Conditions
12:15 AM 71.6 °F - 62.6 °F 73% 29.67 in 10.0 mi SSE 4.6 mph - N/A   Clear
12:35 AM 69.8 °F - 62.6 °F 78% 29.67 in 10.0 mi SSE 6.9 mph - N/A   Clear
12:55 AM 69.8 °F - 62.6 °F 78% 29.66 in 10.0 mi SE 10.4 mph - N/A   Clear
1:15 AM 69.8 °F - 64.4 °F 83% 29.67 in 10.0 mi SSE 10.4 mph - N/A   Clear
1:35 AM 69.8 °F - 64.4 °F 83% 29.66 in 10.0 mi South 11.5 mph - N/A   Clear
1:55 AM 69.8 °F - 64.4 °F 83% 29.65 in 10.0 mi South 12.7 mph - N/A   Clear
2:15 AM 69.8 °F - 64.4 °F 83% 29.65 in 10.0 mi South 12.7 mph - N/A   Clear
2:35 AM 69.8 °F - 64.4 °F 83% 29.65 in 10.0 mi South 13.8 mph - N/A   Clear
2:55 AM 69.8 °F - 64.4 °F 83% 29.65 in 10.0 mi SSE 10.4 mph - N/A   Clear
3:15 AM 69.8 °F - 64.4 °F 83% 29.64 in 10.0 mi SSE 8.1 mph - N/A   Clear
3:35 AM 69.8 °F - 64.4 °F 83% 29.64 in 10.0 mi SSE 9.2 mph - N/A   Clear
3:55 AM 69.8 °F - 64.4 °F 83% 29.64 in 10.0 mi South 11.5 mph - N/A   Clear
4:15 AM 69.8 °F - 64.4 °F 83% 29.64 in 10.0 mi South 11.5 mph - N/A   Clear
4:35 AM 69.8 °F - 64.4 °F 83% 29.64 in 10.0 mi South 10.4 mph - N/A   Clear
4:55 AM 69.8 °F - 64.4 °F 83% 29.64 in 10.0 mi South 10.4 mph - N/A   Clear
5:15 AM 68.0 °F - 64.4 °F 88% 29.64 in 10.0 mi South 9.2 mph - N/A   Clear
5:35 AM 68.0 °F - 64.4 °F 88% 29.64 in 10.0 mi SSE 9.2 mph - N/A   Clear
5:55 AM 68.0 °F - 64.4 °F 88% 29.64 in 10.0 mi South 10.4 mph - N/A   Clear
6:15 AM 68.0 °F - 64.4 °F 88% 29.64 in 10.0 mi South 9.2 mph - N/A   Clear
6:35 AM 68.0 °F - 64.4 °F 88% 29.64 in 10.0 mi South 11.5 mph - N/A   Clear
6:55 AM 68.0 °F - 64.4 °F 88% 29.64 in 10.0 mi South 12.7 mph - N/A   Clear
7:15 AM 68.0 °F - 64.4 °F 88% 29.64 in 10.0 mi South 15.0 mph - N/A   Clear
7:35 AM 68.0 °F - 64.4 °F 88% 29.64 in 10.0 mi South 16.1 mph - N/A   Clear
7:55 AM 69.8 °F - 64.4 °F 83% 29.66 in 10.0 mi SSW 8.1 mph - N/A   Clear
8:15 AM 71.6 °F - 64.4 °F 78% 29.66 in 10.0 mi SSW 8.1 mph - N/A   Clear
8:35 AM 73.4 °F - 64.4 °F 73% 29.66 in 10.0 mi South 9.2 mph - N/A   Clear
8:55 AM 73.4 °F - 64.4 °F 73% 29.67 in 10.0 mi South 10.4 mph - N/A   Clear
9:15 AM 73.4 °F - 66.2 °F 78% 29.66 in 10.0 mi South 12.7 mph - N/A   Clear
9:35 AM 75.2 °F - 66.2 °F 73% 29.67 in 10.0 mi South 9.2 mph - N/A   Scattered Clouds
9:55 AM 77.0 °F - 66.2 °F 69% 29.67 in 10.0 mi South 10.4 mph - N/A   Mostly Cloudy
10:15 AM 77.0 °F - 66.2 °F 69% 29.66 in 10.0 mi SSW 17.3 mph 21.9 mph N/A   Mostly Cloudy
10:35 AM 78.8 °F - 66.2 °F 65% 29.67 in 10.0 mi SW 13.8 mph 19.6 mph N/A   Mostly Cloudy
10:55 AM 80.6 °F 82.3 °F 64.4 °F 58% 29.67 in 10.0 mi SSW 18.4 mph 24.2 mph N/A   Scattered Clouds
11:15 AM 80.6 °F 82.3 °F 64.4 °F 58% 29.67 in 10.0 mi SSW 19.6 mph 23.0 mph N/A   Clear
11:35 AM 80.6 °F 82.3 °F 64.4 °F 58% 29.67 in 10.0 mi SW 17.3 mph 24.2 mph N/A   Clear
11:55 AM 82.4 °F 83.4 °F 62.6 °F 51% 29.67 in 10.0 mi SW 19.6 mph 25.3 mph N/A   Clear
12:15 PM 82.4 °F 83.4 °F 62.6 °F 51% 29.67 in 10.0 mi SW 16.1 mph 24.2 mph N/A   Clear
12:35 PM 84.2 °F 85.0 °F 62.6 °F 48% 29.67 in 10.0 mi SW 17.3 mph 24.2 mph N/A   Clear
12:55 PM 86.0 °F 86.6 °F 62.6 °F 45% 29.66 in 10.0 mi SW 18.4 mph 25.3 mph N/A   Clear
1:15 PM 87.8 °F 87.6 °F 60.8 °F 40% 29.66 in 10.0 mi SSW 18.4 mph 25.3 mph N/A   Clear
1:35 PM 87.8 °F 87.6 °F 60.8 °F 40% 29.66 in 10.0 mi SW 18.4 mph 25.3 mph N/A   Clear
1:55 PM 87.8 °F 88.5 °F 62.6 °F 43% 29.66 in 10.0 mi SW 19.6 mph 28.8 mph N/A   Clear
2:15 PM 89.6 °F 89.5 °F 60.8 °F 38% 29.66 in 10.0 mi SSW 18.4 mph 26.5 mph N/A   Clear
2:35 PM 89.6 °F 90.1 °F 62.6 °F 40% 29.65 in 10.0 mi SSW 19.6 mph 28.8 mph N/A   Scattered Clouds
2:55 PM 89.6 °F 90.1 °F 62.6 °F 40% 29.65 in 10.0 mi South 18.4 mph 26.5 mph N/A   Scattered Clouds
3:15 PM 89.6 °F 89.5 °F 60.8 °F 38% 29.64 in 10.0 mi South 18.4 mph 32.2 mph N/A   Scattered Clouds
3:35 PM 89.6 °F 90.1 °F 62.6 °F 40% 29.64 in 10.0 mi SSW 20.7 mph 31.1 mph N/A   Scattered Clouds
3:55 PM 89.6 °F 89.5 °F 60.8 °F 38% 29.64 in 10.0 mi South 21.9 mph 31.1 mph N/A   Clear
4:15 PM 87.8 °F 87.6 °F 60.8 °F 40% 29.64 in 10.0 mi South 21.9 mph 28.8 mph N/A   Clear
4:35 PM 87.8 °F 88.5 °F 62.6 °F 43% 29.64 in 10.0 mi South 19.6 mph 31.1 mph N/A   Clear
4:55 PM 86.0 °F 86.6 °F 62.6 °F 45% 29.64 in 10.0 mi South 24.2 mph 31.1 mph N/A   Clear
5:15 PM 86.0 °F 86.6 °F 62.6 °F 45% 29.64 in 10.0 mi South 20.7 mph 27.6 mph N/A   Clear
5:35 PM 84.2 °F 85.6 °F 64.4 °F 51% 29.63 in 10.0 mi South 19.6 mph 23.0 mph N/A   Clear
5:55 PM 84.2 °F 85.0 °F 62.6 °F 48% 29.60 in 10.0 mi South 17.3 mph 23.0 mph N/A Thunderstorm Clear
6:15 PM 82.4 °F 83.9 °F 64.4 °F 54% 29.59 in 10.0 mi SSE 23.0 mph 29.9 mph N/A   Clear
6:35 PM 80.6 °F 82.3 °F 64.4 °F 58% 29.62 in 10.0 mi South 25.3 mph 36.8 mph N/A Thunderstorm Clear
6:55 PM 77.0 °F - 64.4 °F 65% 29.63 in 10.0 mi South 24.2 mph 39.1 mph N/A Thunderstorm Clear
7:15 PM 77.0 °F - 62.6 °F 61% 29.65 in 10.0 mi South 25.3 mph 33.4 mph N/A   Clear
7:35 PM 75.2 °F - 62.6 °F 65% 29.68 in 10.0 mi SW 23.0 mph 35.7 mph N/A Thunderstorm Clear
7:55 PM 73.4 °F - 62.6 °F 69% 29.72 in 10.0 mi SW 24.2 mph 39.1 mph N/A   Scattered Clouds
8:15 PM 73.4 °F - 64.4 °F 73% 29.73 in 10.0 mi SSW 16.1 mph 34.5 mph N/A Rain Rain
8:35 PM 71.6 °F - 64.4 °F 78% 29.75 in 10.0 mi WSW 16.1 mph - N/A Rain Light Rain
8:55 PM 71.6 °F - 60.8 °F 69% 29.71 in 10.0 mi NW 19.6 mph 25.3 mph N/A Rain , Thunderstorm Light Thunderstorms and Rain
9:15 PM 73.4 °F - 51.8 °F 47% 29.72 in 10.0 mi SSW 10.4 mph 20.7 mph N/A Rain Light Rain
9:35 PM 75.2 °F - 57.2 °F 53% 29.73 in 10.0 mi South 17.3 mph 20.7 mph N/A   Overcast
9:55 PM 73.4 °F - 62.6 °F 69% 29.71 in 10.0 mi SSE 11.5 mph - N/A   Mostly Cloudy
10:15 PM 71.6 °F - 62.6 °F 73% 29.73 in 10.0 mi SSE 13.8 mph 17.3 mph N/A   Scattered Clouds
10:35 PM 71.6 °F - 60.8 °F 69% 29.70 in 10.0 mi SSE 16.1 mph 19.6 mph N/A   Clear
10:55 PM 71.6 °F - 59.0 °F 64% 29.71 in 10.0 mi South 19.6 mph 26.5 mph N/A   Clear
11:15 PM 69.8 °F - 60.8 °F 73% 29.71 in 10.0 mi South 21.9 mph 26.5 mph N/A   Clear
11:35 PM 69.8 °F - 62.6 °F 78% 29.71 in 10.0 mi South 20.7 mph 24.2 mph N/A   Clear
11:55 PM 69.8 °F - 62.6 °F 78% 29.71 in 10.0 mi South 19.6 mph 25.3 mph N/A   Clear